User: anonymous   Login
Location: Unspecified
(0.0000°N, 0.0000°E)
Time: 03:34:47
(UTC+00:00)
Language:

BEESAT 3 - Orbit

View from above orbital plane
View from above orbital plane
View from above satellite
View from above satellite

Ground track
Ground track

The orbit data is extracted from the following two-line orbital elements,

1 39134U 13015E   17173.48818512  .00001040  00000-0  60350-4 0  9999
2 39134 064.8645 209.3529 0036037 266.9341 092.7662 15.17810534229904
Epoch (UTC): 22 June 2017 11:42:59
Eccentricity: 0.0036037
inclination: 64.8645°
perigee height: 487 km
apogee height: 537 km
right ascension of ascending node: 209.3529°
argument of perigee: 266.9341°
revolutions per day: 15.17810534
mean anomaly at epoch: 92.7662°
orbit number at epoch: 22990

The dashed part of the orbit path shows where the satellite is in the earth's shadow,  

DLR